Location: Utrecht
(52.0907°N, 5.1214°E)
Time: 02:33:34
(UTC+02:00)

AO-109 - Visible Passes

Search period start: 28 June 2022 00:00
Search period end: 08 July 2022 00:00
Orbit: 477 x 502 km, 60.7° (Epoch: 27 June)

Date Brightness Start Highest point End Pass type
(mag) Time Alt. Az. Time Alt. Az. Time Alt. Az.
05 Jul ? 04:36:42 10° SSW 04:40:07 35° SE 04:43:34 10° ENE visible
06 Jul ? 04:12:21 10° SSW 04:15:40 31° SE 04:19:02 10° ENE visible
07 Jul ? 03:48:32 13° S 03:51:13 28° SE 03:54:29 10° ENE visible
